When you browse on this site, cookies collect data to enhance your experience and personalize the content and advertising you see.
Visit our Privacy Policy to learn more. By continuing to use the site, you agree to this use of cookies and data.
  • In Denmark
  • List of Countries
  • For 7 days
  • Water Temperature
  • Satellite Maps
  • Weather Map
  • Weather Widgets
  • user-avatar
    Login

    Hourly Weather Sydney

    Today, 20 November, Tuesday

    Time Temperature Precipitation Wind Pressure Humidity
    00:00 +16°C° 0 mm 2 mps 762 mmHg 84%
    01:00 +16°C° 0 mm 2 mps 762 mmHg 86%
    02:00 +16°C° 0 mm 2 mps 761 mmHg 88%
    03:00 +15°C° 0 mm 2 mps 761 mmHg 89%
    04:00 +16°C° 0 mm 2 mps 760 mmHg 86%
    05:00 +17°C° 0 mm 2 mps 760 mmHg 82%
    06:00 +18°C° 0 mm 2 mps 760 mmHg 79%
    07:00 +19°C° 0 mm 2 mps 760 mmHg 75%
    08:00 +19°C° 0 mm 3 mps 759 mmHg 72%
    09:00 +20°C° 0 mm 3 mps 759 mmHg 70%
    10:00 +26°C° 0 mm 3 mps 758 mmHg 53%
    11:00 +28°C° 0 mm 4 mps 758 mmHg 49%
    12:00 +29°C° 0 mm 5 mps 757 mmHg 44%
    13:00 +30°C° 0 mm 6 mps 756 mmHg 40%
    14:00 +29°C° 0 mm 6 mps 755 mmHg 43%
    15:00 +29°C° 0 mm 6 mps 755 mmHg 46%
    16:00 +28°C° 0 mm 6 mps 754 mmHg 50%
    17:00 +27°C° 0 mm 6 mps 754 mmHg 55%
    18:00 +24°C° 0 mm 7 mps 754 mmHg 61%
    19:00 +23°C° 0 mm 7 mps 753 mmHg 66%
    20:00 +23°C° 0.2 mm 7 mps 753 mmHg 71%
    21:00 +22°C° 0.2 mm 7 mps 753 mmHg 76%
    22:00 +22°C° 0.2 mm 7 mps 752 mmHg 81%
    23:00 +21°C° 2.2 mm 6 mps 752 mmHg 85%

    Tomorrow, 21 November, Wednesday

    Time Temperature Precipitation Wind Pressure Humidity
    00:00 +21°C° 2.2 mm 5 mps 752 mmHg 89%
    01:00 +20°C° 2.2 mm 4 mps 752 mmHg 94%
    02:00 +20°C° 0.6 mm 4 mps 751 mmHg 94%
    03:00 +20°C° 0.6 mm 5 mps 751 mmHg 95%
    04:00 +20°C° 0.6 mm 5 mps 751 mmHg 95%
    05:00 +21°C° 0.1 mm 5 mps 750 mmHg 92%
    06:00 +21°C° 0.1 mm 5 mps 750 mmHg 89%
    07:00 +22°C° 0.1 mm 5 mps 750 mmHg 87%
    08:00 +26°C° 0 mm 5 mps 750 mmHg 71%
    09:00 +29°C° 0 mm 5 mps 750 mmHg 56%
    10:00 +33°C° 0 mm 5 mps 750 mmHg 41%
    11:00 +33°C° 0 mm 5 mps 749 mmHg 40%
    12:00 +33°C° 0 mm 4 mps 749 mmHg 38%
    13:00 +34°C° 0 mm 4 mps 749 mmHg 37%
    14:00 +32°C° 0 mm 4 mps 748 mmHg 41%
    15:00 +30°C° 0 mm 4 mps 748 mmHg 44%
    16:00 +29°C° 0 mm 4 mps 748 mmHg 48%
    17:00 +28°C° 0 mm 4 mps 748 mmHg 52%
    18:00 +27°C° 0 mm 4 mps 748 mmHg 57%
    19:00 +25°C° 0 mm 4 mps 749 mmHg 61%
    20:00 +23°C° 0 mm 4 mps 749 mmHg 66%
    21:00 +22°C° 0 mm 3 mps 749 mmHg 70%
    22:00 +21°C° 0 mm 3 mps 749 mmHg 74%
    23:00 +20°C° 0 mm 3 mps 749 mmHg 76%

    Day after tomorrow, 22 November, Thursday

    Time Temperature Precipitation Wind Pressure Humidity
    00:00 +20°C° 0 mm 3 mps 749 mmHg 77%
    01:00 +19°C° 0 mm 4 mps 748 mmHg 78%
    02:00 +19°C° 0 mm 4 mps 748 mmHg 78%
    03:00 +19°C° 0 mm 4 mps 748 mmHg 79%
    04:00 +19°C° 0 mm 5 mps 748 mmHg 79%
    05:00 +19°C° 0 mm 5 mps 748 mmHg 69%
    06:00 +19°C° 0 mm 6 mps 749 mmHg 60%
    07:00 +19°C° 0 mm 6 mps 749 mmHg 51%
    08:00 +21°C° 0 mm 6 mps 749 mmHg 42%
    09:00 +22°C° 0 mm 6 mps 749 mmHg 34%
    10:00 +23°C° 0 mm 7 mps 749 mmHg 25%
    11:00 +24°C° 0 mm 7 mps 749 mmHg 22%
    12:00 +26°C° 0 mm 7 mps 749 mmHg 18%
    13:00 +26°C° 0 mm 7 mps 748 mmHg 15%
    14:00 +26°C° 0 mm 7 mps 748 mmHg 15%
    15:00 +26°C° 0 mm 8 mps 748 mmHg 16%
    16:00 +26°C° 0 mm 8 mps 748 mmHg 16%
    17:00 +23°C° 0 mm 8 mps 748 mmHg 23%
    18:00 +20°C° 0 mm 8 mps 749 mmHg 29%
    19:00 +17°C° 0 mm 9 mps 749 mmHg 35%
    20:00 +16°C° 0 mm 9 mps 750 mmHg 38%
    21:00 +16°C° 0 mm 9 mps 750 mmHg 41%
    22:00 +15°C° 0 mm 9 mps 751 mmHg 43%
    23:00 +15°C° 0 mm 9 mps 751 mmHg 45%

    23 November, Friday

    Time Temperature Precipitation Wind Pressure Humidity
    00:00 +13°C° 0 mm 8 mps 751 mmHg 46%
    01:00 +14°C° 0 mm 7 mps 750 mmHg 47%
    02:00 +12°C° 0 mm 7 mps 751 mmHg 51%
    03:00 +12°C° 0 mm 7 mps 751 mmHg 54%
    04:00 +12°C° 0 mm 7 mps 751 mmHg 57%
    05:00 +14°C° 0 mm 7 mps 751 mmHg 53%
    06:00 +15°C° 0 mm 7 mps 751 mmHg 48%
    07:00 +17°C° 0 mm 7 mps 752 mmHg 44%
    08:00 +18°C° 0 mm 7 mps 751 mmHg 38%
    09:00 +21°C° 0 mm 7 mps 751 mmHg 32%
    10:00 +23°C° 0 mm 6 mps 751 mmHg 25%
    11:00 +23°C° 0 mm 7 mps 750 mmHg 25%
    12:00 +24°C° 0 mm 7 mps 749 mmHg 24%
    13:00 +26°C° 0 mm 7 mps 749 mmHg 24%
    14:00 +23°C° 0 mm 8 mps 749 mmHg 26%
    15:00 +21°C° 0 mm 10 mps 749 mmHg 28%
    16:00 +18°C° 0 mm 11 mps 749 mmHg 30%
    17:00 +17°C° 0 mm 10 mps 749 mmHg 32%
    18:00 +17°C° 0 mm 9 mps 750 mmHg 33%
    19:00 +16°C° 0 mm 8 mps 750 mmHg 34%
    20:00 +16°C° 0 mm 8 mps 750 mmHg 34%
    21:00 +16°C° 0 mm 8 mps 750 mmHg 34%
    22:00 +15°C° 0 mm 9 mps 750 mmHg 34%
    23:00 +15°C° 0 mm 9 mps 750 mmHg 37%

    24 November, Saturday

    Time Temperature Precipitation Wind Pressure Humidity
    00:00 +15°C° 0 mm 9 mps 749 mmHg 39%
    01:00 +14°C° 0 mm 10 mps 749 mmHg 42%
    02:00 +15°C° 0 mm 9 mps 749 mmHg 45%
    03:00 +15°C° 0 mm 9 mps 749 mmHg 48%
    04:00 +13°C° 0 mm 9 mps 748 mmHg 51%
    05:00 +15°C° 0 mm 9 mps 749 mmHg 49%
    06:00 +17°C° 0 mm 9 mps 749 mmHg 48%
    07:00 +18°C° 0 mm 9 mps 749 mmHg 46%
    08:00 +19°C° 0 mm 9 mps 749 mmHg 43%
    09:00 +21°C° 0 mm 8 mps 749 mmHg 40%
    10:00 +23°C° 0 mm 8 mps 749 mmHg 37%
    11:00 +23°C° 0 mm 8 mps 749 mmHg 35%
    12:00 +24°C° 0 mm 8 mps 748 mmHg 33%
    13:00 +26°C° 0 mm 8 mps 748 mmHg 30%
    14:00 +26°C° 0 mm 8 mps 748 mmHg 30%
    15:00 +27°C° 0 mm 7 mps 748 mmHg 30%
    16:00 +27°C° 0 mm 7 mps 747 mmHg 29%
    17:00 +24°C° 0 mm 6 mps 748 mmHg 33%
    18:00 +23°C° 0 mm 6 mps 749 mmHg 37%
    19:00 +21°C° 0 mm 5 mps 749 mmHg 41%
    20:00 +20°C° 0 mm 5 mps 749 mmHg 44%
    21:00 +19°C° 0 mm 6 mps 750 mmHg 47%
    22:00 +17°C° 0 mm 6 mps 750 mmHg 50%
    23:00 +16°C° 0 mm 6 mps 750 mmHg 53%

    25 November, Sunday

    Time Temperature Precipitation Wind Pressure Humidity
    00:00 +15°C° 0 mm 5 mps 750 mmHg 56%
    01:00 +15°C° 0 mm 5 mps 750 mmHg 59%
    02:00 +14°C° 0 mm 5 mps 750 mmHg 61%
    03:00 +14°C° 0 mm 5 mps 750 mmHg 63%
    04:00 +13°C° 0 mm 5 mps 749 mmHg 65%
    05:00 +15°C° 0 mm 6 mps 750 mmHg 60%
    06:00 +16°C° 0 mm 6 mps 750 mmHg 55%
    07:00 +17°C° 0 mm 6 mps 750 mmHg 50%
    08:00 +20°C° 0 mm 6 mps 750 mmHg 44%
    09:00 +22°C° 0 mm 6 mps 750 mmHg 39%
    10:00 +24°C° 0 mm 6 mps 750 mmHg 34%
    11:00 +26°C° 0 mm 7 mps 750 mmHg 34%
    12:00 +26°C° 0 mm 8 mps 749 mmHg 34%
    13:00 +27°C° 0 mm 8 mps 749 mmHg 34%
    14:00 +26°C° 0 mm 8 mps 749 mmHg 37%
    15:00 +26°C° 0 mm 8 mps 749 mmHg 39%
    16:00 +24°C° 0 mm 8 mps 750 mmHg 41%
    17:00 +23°C° 0 mm 8 mps 750 mmHg 48%
    18:00 +21°C° 0 mm 7 mps 751 mmHg 55%
    19:00 +18°C° 0 mm 7 mps 752 mmHg 62%
    20:00 +18°C° 0 mm 7 mps 752 mmHg 66%
    21:00 +17°C° 0 mm 6 mps 753 mmHg 70%
    22:00 +16°C° 0 mm 6 mps 753 mmHg 74%
    23:00 +15°C° 0 mm 6 mps 753 mmHg 77%
    Show more